Weather History for Barking Sands, HI

Change the Weather History Date:

Friday, March 8, 2013

  Actual Average Record
Temperature  
Mean Temperature 74 °F -  
Max Temperature 81 °F 82 °F 84 °F (1968)
Min Temperature 66 °F 61 °F 58 °F (1952)
Cooling Degree Days 8    
Growing Degree Days 24 (Base 50)    
Moisture  
Dew Point 64 °F    
Average Humidity 70    
Maximum Humidity 90    
Minimum Humidity 50    
Precipitation  
Precipitation 0.05 in - - ()
Sea Level Pressure  
Sea Level Pressure 29.93 in    
Wind  
Wind Speed 8 mph (SSE)    
Max Wind Speed 20 mph    
Max Gust Speed 23 mph    
Visibility 10 miles    
Events Rain    
Averages and records for this station are not official NWS values.
T = Trace of Precipitation, MM = Missing Value Source: NWS Daily Summary

Daily Weather History Graph

Daily Weather History Graph

Search for Another Location

Airport:

Trip Planner

Search our weather history database for the weather conditions in past years. The results will help you decide how hot, cold, wet, or windy it might be!

Date:

Astronomy

Mar. 08, 2013 Rise Set
Actual Time 6:53 AM HST 6:46 PM HST
Civil Twilight 6:31 AM HST 7:08 PM HST
Nautical Twilight 6:05 AM HST 7:34 PM HST
Astronomical Twilight 5:39 AM HST 8:00 PM HST
Moon 4:27 AM HST (3/8) 4:09 PM HST (3/8)
Length of Visible Light 12h 37m
Length of Day
11h 52m
Waning Crescent, 10% of the Moon is Illuminated
Mar 8
Waning Crescent
Mar 11
New
Mar 19
First Quarter
Mar 26
Full
Apr 2
Last Quarter

Hourly Weather History & Observations

Time (HST) Temp. Heat Index Dew Point Humidity Pressure Visibility Wind Dir Wind Speed Gust Speed Precip Events Conditions
1:56 AM 69.1 °F - 66.0 °F 90% 29.99 in 10.0 mi SE 3.5 mph - N/A   Unknown
2:56 AM 68.0 °F - 57.9 °F 70% 29.97 in 10.0 mi ESE 5.8 mph - N/A   Clear
3:56 AM 68.0 °F - 61.0 °F 78% 29.96 in 10.0 mi ESE 5.8 mph - N/A   Clear
4:56 AM 66.9 °F - 60.1 °F 79% 29.95 in 10.0 mi ESE 4.6 mph - N/A   Clear
5:56 AM 66.9 °F - 60.1 °F 79% 29.95 in 10.0 mi East 5.8 mph - N/A   Mostly Cloudy
6:56 AM 69.1 °F - 61.0 °F 75% 29.97 in 10.0 mi East 3.5 mph - N/A   Mostly Cloudy
7:56 AM 72.0 °F - 64.0 °F 76% 29.97 in 10.0 mi SE 6.9 mph - N/A   Partly Cloudy
8:56 AM 75.0 °F - 63.0 °F 66% 29.98 in 10.0 mi SSE 8.1 mph - N/A   Overcast
9:56 AM 79.0 °F - 62.1 °F 56% 29.98 in 10.0 mi SSE 9.2 mph 18.4 mph N/A   Mostly Cloudy
10:56 AM 79.0 °F - 61.0 °F 54% 29.97 in 10.0 mi South 11.5 mph 19.6 mph N/A   Partly Cloudy
11:56 AM 81.0 °F 81.7 °F 61.0 °F 50% 29.96 in 10.0 mi SSE 12.7 mph 20.7 mph N/A   Clear
12:56 PM 81.0 °F 81.9 °F 62.1 °F 52% 29.93 in 10.0 mi South 12.7 mph 20.7 mph N/A   Clear
1:56 PM 80.1 °F 81.1 °F 61.0 °F 52% 29.91 in 10.0 mi South 16.1 mph 21.9 mph N/A   Clear
2:56 PM 81.0 °F 81.9 °F 62.1 °F 52% 29.88 in 10.0 mi South 11.5 mph 20.7 mph N/A   Partly Cloudy
3:56 PM 79.0 °F - 61.0 °F 54% 29.87 in 10.0 mi South 15.0 mph 20.7 mph N/A   Clear
4:56 PM 78.1 °F - 60.1 °F 54% 29.87 in 10.0 mi South 13.8 mph - N/A   Clear
5:56 PM 77.0 °F - 61.0 °F 58% 29.88 in 10.0 mi South 16.1 mph 21.9 mph N/A   Mostly Cloudy
6:56 PM 75.9 °F - 63.0 °F 64% 29.90 in 10.0 mi South 9.2 mph - N/A   Mostly Cloudy
7:56 PM 75.9 °F - 66.0 °F 71% 29.91 in 10.0 mi South 6.9 mph - N/A   Mostly Cloudy
8:26 PM 75.2 °F - 69.8 °F 83% 29.91 in 10.0 mi South 9.2 mph - 0.01 in   Overcast
8:33 PM 75.2 °F - 69.8 °F 83% 29.91 in 10.0 mi South 10.4 mph - 0.01 in   Overcast
8:56 PM 73.9 °F - 66.9 °F 79% 29.93 in 10.0 mi SSW 11.5 mph 23.0 mph 0.01 in Rain Light Rain
9:28 PM 71.6 °F - 66.2 °F 83% 29.93 in 10.0 mi Variable 3.5 mph - 0.04 in Rain Light Rain
9:49 PM 73.4 °F - 66.2 °F 78% 29.94 in 10.0 mi SW 19.6 mph - 0.04 in   Overcast
9:56 PM 73.9 °F - 69.1 °F 85% 29.94 in 10.0 mi SW 16.1 mph - 0.04 in   Overcast
10:07 PM 73.4 °F - 69.8 °F 88% 29.93 in 10.0 mi SSW 13.8 mph - N/A   Overcast
10:56 PM 73.9 °F - 66.9 °F 79% 29.93 in 10.0 mi SSW 12.7 mph 21.9 mph N/A   Overcast
11:56 PM 75.0 °F - 68.0 °F 79% 29.92 in 10.0 mi South 9.2 mph - N/A   Overcast